Skip Page Navigation
NASA JPL Caltech
NASA Logo - Jet Propulsion Laboratory + View the NASA Portal
+ Near-Earth Object (NEO) Program
Search JPL
JPL Home Earth Solar System Stars & Galaxies Technology
JPL Solar System Dynamics
BODIES ORBITS EPHEMERIDES TOOLS PHYSICAL DATA DISCOVERY FAQ SITE MAP
JPL Small-Body Database Browser
Search: [ help ]  
132874 Latinovits (2002 RV118)
Classification: Mars-crossing Asteroid          SPK-ID: 2132874
Ephemeris | Orbit Diagram | Orbital Elements | Physical Parameters | Discovery Circumstances ]

[ show orbit diagram ]
Orbital Elements at Epoch 2456400.5 (2013-Apr-18.0) TDB
Reference: MPO248154 (heliocentric ecliptic J2000)
 Element Value Uncertainty (1-sigma)   Units 
e 0.1179043 n/a  
a 1.8751901 n/a AU
q 1.6540971 n/a AU
i 21.86783 n/a deg
node 190.48121 n/a deg
peri 226.00041 n/a deg
M 7.61303 n/a deg
tp 2456380.6654920
(2013-Mar-29.16549200)
n/a JED
period 937.9212830
2.57
n/a
n/a
d
yr
n 0.38382752 n/a deg/d
Q 2.0962831 n/a AU
  Orbit Determination Parameters
   # obs. used (total)      131  
   first obs. used      2001-??-??  
   last obs. used      2012-12-10  
   # oppositions      7  
   planetary ephem.      DE403  
   condition code      1  
   fit RMS      0.49  
   data source      MPC:mpu  
   producer      MPCLINUX  

Additional Information
 T_jup = 3.881 
 MPC critical-list numbered object 

Ephemeris | Orbit Diagram | Orbital Elements | Physical Parameters | Discovery Circumstances ]

Physical Parameter Table
Parameter Symbol Value Units Sigma Reference Notes
absolute magnitude H 17.3 mag n/a MPO248154  

132874 Latinovits           Discovered 2002 Sept. 9 by K. Sárneczky at Piszkéstet{o´´}.
One of the most successful roles of Hungarian actor Zoltán Latinovits (1931-1976) was as Romeo in 1963. He was also well known for performing the poetry of Attila József. This minor planet was discovered on the 71st anniversary of his birth.
NOTE: some special characters may not display properly (any characters within {} are an attempt to place the proper accent above a character)
Reference: 20080520/MPCPages.arcLast Updated: 2008-05-22
Ephemeris | Orbit Diagram | Orbital Elements | Physical Parameters | Discovery Circumstances ]
ABOUT SSD CREDITS/AWARDS PRIVACY/COPYRIGHT GLOSSARY LINKS
FirstGov 2013-May-22 04:33 UT
(server date/time)  
NASA Home Page
Site Manager:   Donald K. Yeomans
Webmaster  Alan B. Chamberlin